269  
ASUS44 KSJT 191010  
RWRSJT  
WEST CENTRAL TEXAS REGIONAL WEATHER ROUNDUP  
NATIONAL WEATHER SERVICE SAN ANGELO TX  
400 AM CST MON FEB 19 2018  
 
NOTE: "FAIR" INDICATES FEW OR NO CLOUDS BELOW 12,000 FEET WITH NO  
SIGNIFICANT WEATHER AND/OR S TO VISIBILITY
.  
 
TXZ049-054-064>066-071>073-076>078-098-099-113-114-127-128-139-140-  
154-155-168>170-191100   
..LOCATIONS ACROSS WEST CENTRAL TEXAS
 
 
 
CITY SKY/WX TMP DP RH WIND PRES REMARKS
 
SAN ANGELO CLOUDY 67 56 67 S25G32 29.78R  
ABILENE MOCLDY 62 59 90 S15 29.77F  
DYESS AFB MOCLDY 64 60 88 SE18 29.75F  
JUNCTION LGT RAIN 66 62 87 SE15G32 29.84F  
SWEETWATER CLOUDY 64 60 86 S14G21 29.79F  
BROWNWOOD NOT AVBL  
COLEMAN PTSUNNY 66 59 77 S15G23 29.79R  
SONORA CLOUDY 64 61 88 S13 29.88R  
OZONA CLOUDY 63 59 88 S20 29.86S  
BRADY NOT AVBL  

 
 
TEXAS PANHANDLE/OKLAHOMA PANHANDLE  
 
CITY SKY/WX TMP DP RH WIND PRES REMARKS
 
AMARILLO CLEAR 50 40 68 S13 29.69F  
BORGER CLOUDY 56 41 57 S10 29.64R  
CANADIAN PTCLDY 58 52 78 SW10 29.63S  
DALHART CLEAR 52 40 63 SW17 29.62S  
DUMAS SUNNY 54 38 55 SW20 29.63R  
GUYMON NOT AVBL  
HEREFORD CLOUDY 53 42 67 SW6 29.72R  
PAMPA MOSUNNY 55 43 63 SW20 29.67S  
PERRYTON PTCLDY 55 39 56 S15 29.60R  

 
 
SOUTHERN PANHANDLE/SOUTH PLAINS/ROLLING PLAINS  
 
CITY SKY/WX TMP DP RH WIND PRES REMARKS
 
LUBBOCK PTCLDY 57 54 89 SW8 29.73F  
SNYDER CLOUDY 63 59 85 S13 29.78F  
CHILDRESS MOCLDY 65 58 78 S21G29 29.70S  
SEMINOLE CLOUDY 52 52 100 W5 29.79S FOG  

 
 
PERMIAN BASIN  
 
CITY SKY/WX TMP DP RH WIND PRES REMARKS
 
MIDLAND CLEAR 58 56 93 S8 29.79S FOG  
ODESSA PTCLDY 57 56 96 S9 29.79F FOG  
WINK FOG 52 51 97 S3 29.78S VSB 1  

 
 
FAR WEST/SOUTHWEST MOUNTAINS/TRANS PECOS  
 
CITY SKY/WX TMP DP RH WIND PRES REMARKS
 
ALPINE SUNNY 53 38 56 S7 29.94S  
DRYDEN N/A 58 56 93 NE6 29.80F  
EL PASO PTCLDY 57 40 52 SW16 29.83F  
FORT STOCKTON CLEAR 58 49 72 SW9 29.81F  
GUADALUPE PASS PTCLDY 51 36 56 SW28G35 29.86S  
MARFA CLEAR 45 37 73 SE6 29.92F  
PECOS SUNNY 51 48 90 S7 29.79S  

 
 
DALLAS/FORT WORTH METROPLEX  
 
CITY SKY/WX TMP DP RH WIND PRES REMARKS
 
DFW AIRPORT CLOUDY 69 63 81 S24G30 29.84S  
FTW MEACHAM CLOUDY 69 64 84 S18G32 29.84S  
DAL-EXECUTIVE CLOUDY 67 63 87 S16G24 29.86S  
GRAND PRAIRIE CLOUDY 66 62 86 S12G17 29.87S  
ADDISON CLOUDY 66 62 85 S18G28 29.88R  
MESQUITE CLOUDY 65 61 88 SE15 29.88F  
LANCASTER CLOUDY 66 62 86 S14G20 29.88S  

 
 
NORTH CENTRAL TEXAS  
 
CITY SKY/WX TMP DP RH WIND PRES REMARKS
 
SHRMAN/DENISON CLOUDY 65 61 87 S18G26 29.85F  
GAINESVILLE CLOUDY 64 60 86 S16 29.85S  
BRIDGEPORT CLOUDY 65 60 83 S14G23 29.82F  
DENTON CLOUDY 67 62 84 S20G28 29.83F  
WAXAHACHIE CLOUDY 65 64 96 S14G22 29.87F  
GRANBURY CLOUDY 68 62 80 SE12G17 29.85R  

 
 
WESTERN NORTH TEXAS  
 
CITY SKY/WX TMP DP RH WIND PRES REMARKS
 
WICHITA FALLS CLOUDY 62 58 86 S10 29.76F  
VERNON CLOUDY 62 56 82 S13 29.74S  
BRECKENRIDGE CLOUDY 67 57 71 S13G24 29.77F  
COMANCHE CLOUDY 65 62 90 S17G29 29.82F  

 
 
CENTRAL AND SOUTH CENTRAL TEXAS  
 
CITY SKY/WX TMP DP RH WIND PRES REMARKS
 
AUSTIN/BERGSTM CLOUDY 70 67 90 S12 29.90R  
WACO CLOUDY 67 62 84 S14 29.88S  
HILLSBORO CLOUDY 67 65 93 S15 29.88S  
TEMPLE CLOUDY 68 65 90 S18 29.89S  
KILLEEN-GRAY CLOUDY 68 63 85 S14 29.89R  
FORT HOOD CLOUDY 67 63 89 S16 29.85S  
GEORGETOWN CLOUDY 69 64 84 S13G21 29.92R  
LAGO VISTA CLOUDY 69 65 87 S13G20 29.93R  
SAN MARCOS CLOUDY 70 65 84 S15 29.92R  
NEW BRAUNFELS CLOUDY 70 65 84 S13 29.91R  
RANDOLPH AFB CLOUDY 69 65 88 S12 29.92S  
SAN ANTONIO CLOUDY 69 64 84 S10 29.92S  
STINSON CLOUDY 71 66 84 S10 29.90R  
PLEASANTON NOT AVBL  
LA GRANGE CLOUDY 72 68 87 S14 29.91S  
GIDDINGS CLOUDY 69 64 85 S9 29.93S  

 
 
EAST TEXAS  
 
CITY SKY/WX TMP DP RH WIND PRES REMARKS
 
PARIS CLOUDY 64 61 90 S15 29.91R  
CLARKSVILLE NOT AVBL  
TYLER PTCLDY 66 61 84 S16 29.93F  
LONGVIEW FAIR 65 63 93 S13 29.96R  
PALESTINE MOSUNNY 66 62 87 SE8 29.95S  
NACOGDOCHES CLOUDY 65 62 90 S8 30.00R  

 
 
TEXAS HILL COUNTRY AND EDWARDS PLATEAU  
 
CITY SKY/WX TMP DP RH WIND PRES REMARKS
 
LLANO N/A N/A N/A N/A MISG N/A  
HORSESHOE BAY CLOUDY 70 63 78 S10G17 29.92R  
KERRVILLE CLOUDY 66 61 84 S12G18 29.93S  
FREDERICKSBRG CLOUDY 67 59 77 SW13G18 29.93S  
ROCKSPRINGS CLOUDY 63 61 94 SE10 29.95F  
HONDO CLOUDY 69 64 84 SE12 29.90F  
UVALDE CLOUDY 66 63 88 E8 29.88F  
DEL RIO LGT RAIN 67 63 87 E15G23 29.81F  

 
 
SOUTHEAST TEXAS  
 
CITY SKY/WX TMP DP RH WIND PRES REMARKS
 
COLLEGE STN CLOUDY 68 65 90 S15 29.94S  
CALDWELL CLOUDY 70 65 86 S17G23 29.93S  
CROCKETT LGT RAIN 64 63 94 SE9 29.99F  
BRENHAM CLOUDY 71 66 85 S10G18 29.95S  
HUNTSVILLE CLOUDY 70 62 76 S14G22 29.96S  
CONROE CLOUDY 69 66 90 S12 29.98R  
HOUSTON BUSH MOCLDY 71 65 81 S13 29.98S  
HOUSTON HOBBY CLOUDY 70 67 90 S15G21 29.97F  
PERLAND CLOUDY 70 67 90 S13 29.99F  
WHARTON CLOUDY 69 65 88 SE14G20 29.96S  

 
 
THE UPPER TEXAS COAST  
 
CITY SKY/WX TMP DP RH WIND PRES REMARKS
 
ORANGE CLOUDY 66 66 100 S7 30.04S  
PORT ARTHUR CLOUDY 66 65 96 S14G20 30.01S  
GALVESTON FAIR 67 66 97 SE15 30.00F  
ANGLETON CLOUDY 71 67 87 S18 29.98S  
BAY CITY FAIR 70 67 92 SE17 29.96S  

 
 
TEXAS COASTAL BEND, RIO GRANDE PLAINS DEEP SOUTH TEXAS  
 
CITY SKY/WX TMP DP RH WIND PRES REMARKS
 
VICTORIA CLOUDY 71 67 87 S18G26 29.93S  
BEEVILLE CLOUDY 71 68 89 S17G24 29.90S  
ROCKPORT MOCLDY 68 67 96 SE13 29.93R FOG  
PORT ARANSAS NOT AVBL  
PORT LAVACA CLOUDY 69 67 94 SE14 29.94S  
CORPUS CHRISTI CLOUDY 71 70 96 S23G35 29.92R  
KINGSVILLE NAS CLOUDY 72 69 90 S14 29.90S  
COTULLA MOCLDY 68 65 90 SE8 29.87R  
LAREDO CLOUDY 70 65 84 S17 29.86R  
BROWNSVILLE FAIR 72 70 93 SE17 29.92F  
PORT ISABEL FAIR 71 67 87 S17 29.91F  
HEBBRONVILLE CLOUDY 69 65 85 S13G20 29.88F  
MCALLEN MOCLDY 74 69 85 S22G30 29.89F  
WESLACO NOT AVBL  
FALFURRIAS CLOUDY 73 67 80 S21 29.88F  
EDINBURG CLOUDY 74 67 79 S18G25 29.90S  

 
 
 
CLICK HERE TO GO TO PREVIOUS BULLETINS.

The Nexlab TX Page Main Text Page